Regional Weather Roundup
Issued by NWS

Home | Current Version | Previous Version | Graphics & Text | Print | Product List | Glossary On
Versions: 1 2 3 4 5 6 7 8 9 10 11 12 13 14 15 16 17 18 19 20 21 22 23 24 25 26 27 28 29 30 31 32 33 34 35 36 37 38 39 40 41 42 43 44 45 46 47 48 49 50
000
ASUS43 KIND 011509
RWRIN

WEATHER ROUNDUP FOR INDIANA
NATIONAL WEATHER SERVICE INDIANAPOLIS IN
1100 AM EDT SAT OCT 01 2016

NOTE: "FAIR" INDICATES FEW OR NO CLOUDS BELOW 12,000 FEET WITH NO
SIGNIFICANT WEATHER AND/OR OBSTRUCTIONS TO VISIBILITY.

* - STATION DOES NOT REPORT WEATHER SUCH AS PRECIPITATION OR FOG.

+ - STATION NOT QUALITY CONTROLLED BY THE NATIONAL WEATHER SERVICE.
    USE DATA WITH CAUTION...ESPECIALLY DEWPOINT AND RELATIVE
    HUMIDITY OBSERVATIONS.

INZ001>003-010>013-019-020-011600-
NORTHWEST INDIANA

CITY           SKY/WX    TMP DP  RH WIND       PRES   REMARKS
GARY /AIRPORT/ CLOUDY    63  61  94 NE3       30.02R
KNOX *+        CLOUDY    59  52  77 SE3       30.01R
LA PORTE +     CLOUDY   N/A N/A N/A NE5       30.01R
MICHIGAN CITY+ CLOUDY    59  59 100 N6        30.01S
MONTICELLO +   LGT RAIN  59  55  85 S5        30.01S
RENSSELAER +   CLOUDY    59  59 100 CALM      30.02R
VALPARAISO     CLOUDY    62  57  83 NE3       30.01R

$$

LMZ046-743>745-011600-
SOUTHERN LAKE MICHIGAN

STATION/POSITION TIME  TEMP    WIND        PRES    WAVE
                       AIR SEA DIR/SP/G            HT
                 (UTC) (F)     (DEG/KT/KT) (MB)    (FT)
BURNS HARBOR     1502   61      50/ 10/ 11 1016.6
MICHIGAN CITY    1440   59      20/ 17/ 18   N/A
5NW MICH CITY    1500   61 64   40/ 14/ 17   N/A     4

$$

INZ004-005-014>016-021>024-011600-
NORTH CENTRAL INDIANA

CITY           SKY/WX    TMP DP  RH WIND       PRES   REMARKS
ELKHART        CLOUDY    63  59  88 SE8       30.01R
GOSHEN         CLOUDY    62  56  80 S10       30.01R
LOGANSPORT +   HVY RAIN  54  54 100 S7        30.04R
ROCHESTER +    RAIN      59  59 100 S5        30.02S
SOUTH BEND     CLOUDY    61  59  93 NE5       30.01R
WARSAW +       CLOUDY    59  54  82 CALM      30.02R

$$

INZ006>009-017-018-025>027-011600-
NORTHEAST INDIANA

CITY           SKY/WX    TMP DP  RH WIND       PRES   REMARKS
ANGOLA *+        N/A     61  52  72 S8        30.03R
AUBURN +       PTSUNNY   59  54  82 S3        30.05R
FORT WAYNE     CLOUDY    58  55  90 SE8       30.05R
HUNTINGTON +   CLOUDY    58  56  94 S7        30.04R
KENDALLVILLE + MOSUNNY   62  56  80 S9        30.04R

$$

INZ028-029-035-036-043>045-051>053-011600-
WEST CENTRAL INDIANA

CITY           SKY/WX    TMP DP  RH WIND       PRES   REMARKS
CRAWFORDSVL +  CLOUDY    58  58 100 S5        30.04R
GREENCASTLE +  CLOUDY    55  55 100 CALM      30.05R
LAFAYETTE      CLOUDY    57  57 100 SE5       30.02R
TERRE HAUTE    CLOUDY    57  54  89 SE5       30.03R

$$

INZ030>032-037>040-046>048-054>057-064-065-011600-
CENTRAL INDIANA

CITY           SKY/WX    TMP DP  RH WIND       PRES   REMARKS
ANDERSON       CLOUDY    59  54  82 S6        30.05R
COLUMBUS       CLOUDY    54  54 100 SE8       30.06R FOG
FISHERS *+     CLOUDY    57  55  94 SW5       30.04R
FRANKFORT +    CLOUDY    61  55  80 CALM      30.05R
GREENWOOD *+   CLOUDY    57  57 100 SE3       30.05
INDIANAPOLIS   PTSUNNY   56  54  93 CALM      30.04R FOG
-EAGLE CREEK   PTSUNNY   57  53  86 S6        30.03R
KOKOMO *+      LGT RAIN  56  54  93 S6        30.05R
MARION +       CLOUDY    61  53  75 S7        30.04S
MT COMFORT *+  CLOUDY    59  54  82 S5        30.04R
SHELBYVILLE    CLOUDY    60  52  74 SE9       30.03S
ZIONSVILLE +   MOSUNNY   58  54  85 SE6       30.05R

$$

INZ033-034-041-042-049-050-058-059-011600-
EAST CENTRAL INDIANA

CITY           SKY/WX    TMP DP  RH WIND       PRES   REMARKS
MUNCIE         CLOUDY    59  54  83 VRB5      30.04S

$$

INZ060-061-067>069-081>083-085>088-011600-
SOUTHWEST INDIANA

CITY           SKY/WX    TMP DP  RH WIND       PRES   REMARKS
EVANSVILLE     PTSUNNY   64  60  87 S7        30.04S FOG
HUNTINGBURG *+   N/A     59  57  94 W3        30.04R
WASHINGTON +   CLOUDY   N/A N/A N/A SE3       30.03F FOG

$$

INZ062-063-066-070>080-084-089>092-011600-
SOUTH CENTRAL AND SOUTHEAST INDIANA

CITY           SKY/WX    TMP DP  RH WIND       PRES   REMARKS
BLOOMINGTON    CLOUDY    55  53  93 SE6       30.04S FOG
MADISON *+     CLOUDY    55  54  94 CALM      30.07S
NORTH VERNON + CLOUDY   N/A N/A N/A SE6       30.07R
SEYMOUR +      CLOUDY    55  55 100 CALM      30.06R FOG

$$





USA.gov is the U.S. government's official web portal to all federal, state and local government web resources and services.